Theta_e
321 322 325 328 327 327 329 331 332 332 331 331 330 329 329 329 329 329 330 330 330 329 329 329 330 330 332 332 332 332 332 331 332 332 333 333 336 334 334 334 334 333 334 333 331 334 331 331 331 332 333 333 332 330 330 330 329 330 329 327 326 326 328 330 328 327 325 324 326 326 326 329 330 329 328 327 326 326 327 326 326 326 325 326 326
320 320 320 324 326 327 329 331 332 329 329 329 329 329 328 329 328 329 329 330 330 330 330 330 331 332 332 331 331 331 330 330 330 331 332 333 334 333 334 333 333 333 334 333 332 332 330 330 330 332 333 331 331 331 330 333 329 329 328 326 327 328 327 329 327 326 322 321 320 320 323 325 327 327 327 326 325 326 325 326 326 326 328 328 326
316 318 319 324 327 329 330 329 329 330 328 327 329 329 328 328 329 329 329 329 331 331 331 330 331 331 331 330 331 330 331 332 332 332 333 332 332 333 333 333 333 332 333 334 332 332 331 330 330 332 332 332 331 330 331 330 329 328 328 326 325 325 327 328 327 323 321 323 323 320 317 317 321 324 326 327 327 327 327 326 326 326 327 325 325
315 316 319 324 323 324 326 327 327 327 326 326 327 328 328 328 328 329 328 330 331 331 332 331 332 331 330 331 332 331 330 333 331 333 333 332 331 332 332 332 332 332 333 334 334 334 332 331 330 330 330 331 332 331 330 328 328 328 328 327 327 325 326 327 328 324 325 322 316 314 317 317 314 318 321 325 327 325 327 326 326 325 324 324 323
315 317 320 322 322 324 325 325 325 324 325 325 327 328 329 328 328 328 329 330 331 332 331 331 332 329 330 330 331 330 331 330 329 329 331 331 331 330 330 331 332 332 332 333 334 333 333 330 330 330 329 330 331 331 330 329 329 328 328 328 327 326 324 324 326 325 325 323 319 316 314 314 314 318 321 321 324 323 324 325 326 323 323 324 322
318 319 320 321 323 324 324 324 324 324 324 326 328 329 329 329 329 329 329 331 331 331 331 332 330 330 329 329 328 328 328 328 327 327 329 329 330 330 330 331 332 332 332 332 334 333 331 330 330 330 329 330 331 331 331 329 329 328 329 329 327 327 326 324 324 326 326 325 323 319 319 315 316 320 320 313 322 323 322 325 325 323 322 323 322
319 320 321 321 322 323 323 323 323 323 324 326 327 328 329 329 329 329 329 330 331 331 332 332 330 330 330 330 330 328 328 328 330 330 330 330 331 330 330 330 332 331 331 333 332 332 330 330 330 329 329 331 332 329 329 330 330 329 330 329 328 327 326 324 324 324 324 324 324 322 322 319 323 320 316 318 314 319 321 320 322 323 324 324 324
319 319 321 322 323 322 322 323 324 324 325 325 325 328 328 328 328 328 329 329 330 331 331 332 330 329 329 330 330 329 329 328 329 330 331 330 330 330 329 330 332 332 331 332 332 331 330 330 329 328 329 331 333 330 330 330 329 329 330 330 329 328 327 326 324 324 323 322 321 319 319 322 323 318 321 318 316 314 317 322 321 318 320 323 324
319 319 320 321 321 321 322 322 323 324 325 324 324 326 328 328 328 327 328 329 330 330 331 331 331 330 329 329 328 329 329 329 330 331 330 330 329 328 328 329 330 330 331 331 331 331 331 329 329 328 329 331 333 331 330 330 328 328 327 327 328 328 328 327 326 324 323 322 320 317 320 320 319 318 320 318 317 315 315 318 318 319 319 319 321
321 321 321 321 320 321 321 322 323 324 324 322 323 325 327 327 326 327 327 329 330 330 330 330 330 330 329 328 328 328 329 328 329 330 329 329 328 327 327 328 328 328 329 330 330 331 330 330 329 329 329 332 333 332 330 329 328 328 328 327 328 327 326 327 326 325 324 323 323 321 318 316 317 317 315 316 316 316 314 316 319 318 316 317 318
321 321 321 321 321 320 320 321 321 321 321 323 322 324 326 326 324 326 328 329 330 329 328 326 327 328 327 326 326 325 326 328 329 329 328 326 326 325 325 326 326 327 327 328 329 330 329 330 329 329 330 332 332 331 329 329 328 328 329 328 327 327 326 325 324 324 323 323 322 322 320 320 319 316 316 316 316 314 316 317 318 318 316 316 318
320 321 320 321 320 320 319 319 320 321 322 323 324 326 326 327 326 325 327 328 328 329 328 328 328 327 324 324 325 327 329 329 329 329 329 327 326 324 323 323 324 325 326 326 327 328 329 329 330 330 330 331 330 330 330 329 329 329 329 328 327 327 326 325 324 323 323 323 321 321 321 321 318 319 319 318 317 316 317 317 317 317 315 314 315
318 319 319 319 319 318 319 319 320 321 321 323 325 326 327 327 326 324 325 327 328 328 327 327 326 324 324 326 327 328 329 330 329 328 328 327 325 323 323 323 323 324 325 326 326 327 328 328 328 329 328 329 329 328 329 331 330 329 329 329 328 326 326 325 324 324 324 324 322 320 322 321 320 320 321 319 317 318 318 316 316 316 311 310 311
317 318 318 319 319 319 319 319 319 319 321 322 325 326 326 326 325 324 325 327 328 328 328 327 327 327 329 330 328 327 326 329 329 328 326 325 324 324 324 324 324 325 326 326 328 328 329 329 329 329 329 328 329 328 329 331 330 330 329 328 328 327 326 325 324 324 324 324 323 322 322 323 320 322 322 320 318 318 316 316 315 312 311 310 311
315 316 317 318 318 318 316 316 316 317 319 321 323 325 326 326 325 325 325 326 327 327 327 327 326 327 329 330 329 328 327 327 327 327 326 325 324 324 324 326 326 326 326 327 328 329 330 329 329 329 328 328 329 329 330 331 330 330 330 329 328 327 326 325 323 324 324 323 322 323 323 322 322 322 323 321 321 320 319 318 316 311 309 309 308
315 315 315 316 316 317 317 315 316 317 318 320 323 324 325 325 325 324 324 326 327 327 327 327 325 327 329 330 331 330 329 328 327 327 327 325 324 324 324 325 326 326 326 327 328 330 329 329 329 329 329 329 329 330 330 330 330 330 328 328 327 330 326 324 323 324 324 323 323 322 323 323 323 324 323 322 322 321 321 320 317 314 310 306 306
314 314 315 316 316 315 316 316 318 321 321 321 322 323 323 324 323 320 322 323 323 324 325 326 326 327 329 331 331 330 330 328 327 327 327 326 325 325 325 325 325 326 327 328 329 329 329 329 328 329 329 329 329 329 330 329 329 328 328 327 327 328 327 326 323 324 323 324 322 322 323 323 322 323 323 322 321 321 321 321 319 315 313 309 305
310 310 310 311 313 315 316 317 319 320 322 322 321 322 323 323 324 323 322 322 323 323 324 325 326 327 329 330 330 331 330 328 326 326 326 326 325 325 325 324 325 327 328 328 327 327 328 331 328 328 328 328 328 328 329 329 328 327 327 327 328 327 326 324 324 325 324 324 323 322 321 321 321 322 322 322 321 321 320 320 318 315 314 310 308
306 306 307 308 309 310 312 315 319 319 321 322 321 320 321 322 324 324 323 324 324 325 325 327 327 326 326 326 326 328 328 327 326 326 326 326 325 325 325 325 326 327 329 329 327 327 327 327 328 327 327 328 328 327 328 328 327 326 326 326 326 326 325 324 324 325 324 325 323 322 319 320 321 322 321 323 322 321 320 320 318 313 313 310 309
304 304 305 306 307 308 309 310 312 315 318 320 321 321 322 322 322 323 324 325 326 325 325 326 327 328 328 328 329 329 327 326 325 325 324 323 325 325 325 325 327 328 328 329 328 327 326 326 326 326 326 326 326 326 328 327 327 326 325 325 325 326 325 324 324 325 327 324 323 322 321 322 321 321 320 322 321 322 322 321 320 315 312 310 306
303 303 304 304 305 306 308 309 310 311 313 315 317 319 322 321 320 321 321 323 325 326 325 325 326 327 327 327 325 324 324 323 323 324 323 324 325 325 325 326 328 328 327 327 327 326 326 326 326 325 325 324 325 325 325 325 326 325 325 326 326 326 326 324 325 324 326 325 324 323 322 322 322 322 321 321 321 322 322 321 321 317 314 310 306
302 303 303 303 304 305 306 307 308 308 309 310 313 315 316 320 320 320 320 320 322 324 324 324 324 327 326 324 323 323 324 324 323 323 324 325 325 325 326 326 327 325 326 326 327 326 325 325 325 324 323 323 324 325 324 324 325 324 323 326 325 325 325 324 324 325 325 326 324 322 323 322 323 323 320 321 322 322 321 321 321 320 318 314 307
300 300 301 302 303 303 303 304 305 306 306 307 309 310 312 314 316 319 320 319 321 322 324 324 324 324 324 323 323 322 323 323 322 323 324 325 324 326 327 326 326 325 326 326 326 326 325 325 324 323 323 322 323 323 322 323 323 323 322 323 324 323 324 323 322 324 324 323 322 322 322 322 323 321 320 321 322 322 322 322 321 319 319 317 310
299 299 299 300 300 301 301 301 302 303 304 305 307 308 309 310 312 315 317 320 320 320 321 322 322 322 322 322 321 321 323 323 323 323 324 325 325 326 326 325 325 325 326 325 325 325 325 324 324 323 322 322 322 321 321 322 322 321 321 322 321 321 322 322 321 322 322 323 323 321 321 322 322 320 319 319 319 321 321 321 320 319 318 317 312
297 297 297 298 298 299 299 300 301 302 304 304 305 306 307 308 310 311 313 317 321 321 321 322 321 320 320 321 322 322 322 322 322 323 324 324 324 324 324 325 325 324 324 324 324 324 323 323 323 322 321 321 320 320 320 319 319 319 319 321 321 320 320 320 320 321 325 323 321 321 321 322 321 320 317 319 319 319 321 319 319 320 318 316 313
295 295 296 296 297 298 299 299 300 301 303 304 304 305 306 307 308 310 311 313 317 322 322 322 322 321 319 320 322 322 322 321 321 322 323 323 324 324 324 324 325 323 323 323 322 322 323 323 321 319 316 314 314 315 315 314 315 316 316 316 319 319 319 318 318 319 323 322 321 320 320 321 322 321 320 319 317 319 319 317 317 317 317 315 310
294 295 295 296 296 296 298 298 299 300 302 303 304 304 305 306 306 308 309 311 315 321 322 321 321 321 320 320 321 321 321 320 320 322 323 323 323 324 324 323 322 322 321 319 318 317 316 315 313 312 310 309 308 309 310 311 314 315 315 315 315 315 316 314 316 320 322 321 320 320 320 321 322 321 320 319 317 315 318 316 316 317 318 313 311
294 294 294 294 295 296 296 297 298 299 301 302 303 304 304 305 305 306 308 310 313 317 321 321 320 321 321 321 320 320 319 321 322 323 323 323 323 322 323 322 320 319 317 316 315 313 312 311 309 308 307 307 306 305 306 307 311 313 314 313 313 314 314 316 319 321 321 320 319 320 321 322 322 321 320 319 318 318 316 316 317 318 317 314 310
293 293 294 294 294 295 295 296 297 298 299 300 301 302 303 304 305 306 307 309 312 315 320 320 320 320 321 321 320 320 320 321 322 322 321 321 322 322 321 320 317 317 317 314 312 311 308 307 306 305 304 304 303 301 301 302 306 310 311 312 313 314 316 319 319 319 318 318 317 317 317 317 319 324 317 316 317 318 318 317 317 316 315 312 307
292 293 293 294 294 294 295 296 296 296 297 299 300 301 302 303 303 305 306 308 310 315 319 320 320 320 319 320 320 320 320 320 320 320 319 319 320 319 318 318 317 316 313 312 310 309 307 305 303 302 302 301 300 300 299 297 299 306 309 312 312 313 314 317 319 317 315 316 317 316 318 324 318 315 313 310 309 311 314 319 318 316 314 309 307
292 292 293 293 294 294 294 295 295 296 296 298 299 300 301 302 303 304 305 307 309 312 316 319 319 319 320 320 319 319 319 318 318 319 318 318 319 319 318 315 314 312 310 309 307 305 304 303 302 300 299 298 297 296 294 292 294 299 308 311 312 312 312 315 317 318 316 316 314 313 311 315 311 308 303 300 304 305 307 306 308 311 312 311 308
291 292 293 293 293 293 293 294 295 296 296 297 298 299 300 300 302 303 304 306 307 308 310 316 319 319 319 319 319 318 318 318 318 318 319 319 318 316 313 311 310 308 306 305 304 302 301 300 299 297 297 296 295 294 292 293 294 295 303 310 312 313 313 314 315 316 317 316 313 312 311 313 313 313 309 304 302 298 299 299 298 300 301 302 304
291 291 292 292 293 293 293 294 295 295 296 297 298 299 299 300 301 302 304 304 305 305 306 308 311 315 318 319 319 318 317 317 317 318 318 317 316 313 310 308 306 305 304 302 300 300 298 298 297 296 295 294 294 293 292 293 295 295 299 309 314 313 313 312 312 314 313 312 311 309 307 305 305 310 308 307 306 303 299 297 298 300 300 297 295
291 291 292 292 293 293 294 294 295 296 297 297 298 299 299 300 301 302 302 303 303 304 304 305 306 308 311 316 318 317 317 317 317 317 316 314 312 310 309 307 305 303 301 300 299 298 297 296 295 294 294 295 295 294 293 294 296 298 302 307 314 313 312 312 313 313 312 311 308 306 304 302 300 301 302 304 308 307 306 308 309 309 310 308 302
290 291 291 292 292 293 293 294 294 296 296 297 297 298 299 299 300 300 301 301 302 303 303 304 304 305 307 310 313 314 314 315 315 313 312 311 310 308 307 306 304 303 301 299 298 296 296 295 294 294 294 294 295 293 293 295 297 301 303 306 311 309 308 306 306 307 307 305 303 301 298 297 297 299 300 302 308 309 310 311 311 309 308 307 305
291 291 291 291 292 292 293 294 296 295 296 296 296 297 297 298 299 299 300 300 301 301 302 303 303 304 304 305 307 309 310 311 311 311 310 309 308 307 306 305 303 302 300 299 297 296 294 293 293 293 294 293 294 292 293 295 297 300 304 311 307 304 302 301 301 301 300 300 299 298 297 296 297 297 296 295 301 308 309 309 309 308 306 303 303
292 292 292 293 293 293 294 295 294 295 295 295 296 297 297 297 297 298 299 300 300 300 301 302 303 304 304 304 304 305 306 306 307 308 307 307 306 306 306 305 302 301 299 298 297 296 295 293 293 293 293 292 292 292 292 294 295 299 304 308 304 301 300 298 297 298 299 299 299 298 297 296 295 295 293 293 295 299 302 302 303 303 303 301 299
293 293 293 293 294 294 295 294 294 294 294 295 296 297 296 296 296 297 297 298 298 299 300 301 302 303 304 304 304 304 303 304 304 304 304 304 304 305 304 304 302 300 299 297 296 295 295 294 293 293 294 293 293 293 292 293 294 296 302 306 305 302 300 298 297 297 297 297 300 302 301 295 294 294 291 292 293 298 298 298 298 296 297 297 297
293 293 292 293 293 294 294 294 294 293 294 295 294 295 296 296 296 296 297 297 297 298 299 300 301 303 304 304 304 304 304 303 303 303 304 304 304 303 303 304 303 301 299 297 296 294 294 295 296 297 299 295 295 295 292 292 293 295 300 304 304 302 300 298 298 297 297 297 297 297 297 296 295 292 290 291 292 296 297 297 296 294 294 295 295
293 294 294 294 294 293 293 293 293 293 294 294 293 293 294 295 296 296 296 296 297 298 299 300 301 302 302 303 304 304 304 304 303 303 304 304 304 303 303 303 302 301 299 297 296 296 295 295 296 297 297 296 295 294 294 292 293 293 296 301 303 303 301 300 300 298 296 296 297 297 296 291 290 290 290 290 290 292 296 296 296 295 294 294 294
293 293 295 293 293 293 292 292 292 293 293 294 293 292 292 293 294 295 295 296 297 298 299 299 300 300 301 301 302 303 304 304 305 304 304 304 304 304 304 302 301 300 299 298 297 297 296 297 297 298 297 297 297 294 293 292 292 293 294 296 299 300 300 299 297 297 296 296 296 296 295 292 290 291 291 290 290 289 292 295 295 295 295 294 292
294 294 294 293 293 293 293 293 293 292 293 293 292 292 292 292 293 293 295 297 298 298 298 298 298 298 299 300 301 301 303 303 304 305 304 304 305 305 304 303 302 300 299 298 297 297 297 296 297 297 297 296 298 298 295 293 292 292 292 294 296 296 297 297 296 296 295 295 294 293 294 292 290 291 290 291 291 291 292 295 291 289 287 288 292
293 293 294 294 293 293 292 293 293 293 293 293 292 292 291 292 292 293 295 296 297 298 298 297 297 297 298 298 299 300 300 301 301 302 302 302 303 304 304 304 302 301 299 298 298 298 297 296 296 296 296 296 295 296 294 294 292 292 292 292 293 294 293 297 295 294 293 293 293 293 295 293 291 291 291 291 291 292 293 290 288 288 287 286 290
295 295 295 295 294 294 293 293 294 294 294 294 294 293 293 292 292 294 295 296 297 297 298 298 297 297 297 297 297 298 299 299 299 300 299 299 300 301 302 303 303 302 301 299 298 298 298 297 296 295 296 295 295 295 293 292 293 291 291 291 291 291 292 294 294 292 292 291 293 293 293 292 292 292 292 292 292 292 292 289 289 288 288 289 291
293 294 295 295 294 293 293 293 293 294 294 295 295 294 293 293 294 295 295 295 296 296 297 297 297 298 297 296 296 296 296 297 298 298 297 297 297 299 299 300 301 302 302 300 299 298 297 297 297 295 295 294 294 294 293 292 292 291 290 290 290 290 290 290 291 292 291 292 291 292 292 292 292 292 292 293 293 292 291 292 292 292 295 295 294
293 293 294 294 294 293 293 293 294 294 294 294 295 295 294 294 296 296 296 295 296 296 296 296 297 297 298 297 295 294 295 295 295 296 296 296 295 296 297 298 299 299 300 300 299 298 298 297 295 294 294 292 292 291 291 291 292 293 291 290 290 290 291 291 291 290 291 291 292 292 292 292 293 293 295 294 293 293 292 292 292 294 294 294 294
292 293 293 294 293 293 293 293 293 294 294 294 295 295 295 296 296 297 297 296 295 295 295 296 296 296 297 297 295 294 293 293 293 293 294 294 294 294 294 295 296 296 297 297 297 296 296 294 293 292 292 291 290 290 289 289 289 289 289 290 290 291 292 292 292 291 293 293 293 293 292 291 292 291 292 292 292 292 293 293 293 293 293 293 293
292 293 293 293 293 293 293 293 293 293 293 294 295 295 296 296 297 297 297 296 295 295 295 295 296 296 296 296 296 291 293 293 291 291 291 291 292 292 291 290 290 292 295 294 294 294 293 293 293 292 292 291 290 290 289 288 288 288 288 289 289 290 289 288 289 289 291 294 293 292 292 293 292 292 292 292 291 291 290 289 291 291 291 291 293
292 292 292 292 292 293 293 293 293 294 294 294 294 295 296 296 297 297 296 296 295 294 295 295 296 296 296 295 296 295 295 294 293 291 290 290 290 290 290 291 291 290 291 294 294 293 293 293 293 292 291 290 290 289 288 288 286 288 288 290 290 289 289 289 288 289 293 292 292 291 290 290 290 288 287 288 288 288 287 288 289 289 289 289 289
293 293 292 292 293 293 293 293 294 294 295 294 294 295 295 296 297 297 297 295 294 294 294 294 295 295 295 295 295 296 296 294 294 293 292 291 288 289 289 290 289 289 289 289 290 292 293 292 291 291 291 291 290 290 289 288 288 288 288 288 288 288 288 288 287 289 292 289 288 287 287 287 287 287 287 286 286 285 285 285 285 286 286 287 287
293 293 293 293 293 294 294 293 294 295 295 295 294 294 295 296 296 297 296 295 295 293 293 294 294 294 293 294 295 295 295 294 294 293 293 292 292 291 289 289 289 289 289 289 289 289 289 290 292 290 289 288 288 288 288 289 289 288 288 288 288 288 288 288 289 290 289 288 288 287 286 286 286 286 285 285 285 284 284 284 284 284 285 284 284
Wind_Speed
4 4 1 8 11 8 9 10 11 10 10 12 12 13 12 10 11 8 8 10 7 8 8 8 8 6 3 5 5 4 5 4 4 4 5 5 6 6 5 5 6 6 6 6 6 5 4 4 4 3 2 3 6 6 5 7 6 4 5 4 7 7 4 5 6 8 8 6 5 5 4 4 5 4 4 4 3 3 4 3 3 3 2 3 3
0 1 7 11 11 11 10 10 12 13 10 11 14 17 19 21 20 16 10 5 8 9 8 7 7 8 9 8 5 5 6 6 6 5 5 5 5 5 5 5 5 6 6 6 6 6 6 5 5 4 3 2 4 4 5 8 9 5 5 5 2 8 6 7 7 8 3 6 6 3 3 4 5 4 4 4 3 2 2 3 4 2 1 3 3
2 2 11 10 11 11 11 11 12 13 12 11 11 11 10 10 11 15 15 11 8 10 7 8 6 3 4 4 5 4 3 5 6 6 5 6 5 5 6 5 5 5 5 6 6 6 6 6 4 2 3 3 3 5 6 8 9 9 7 7 6 0 3 6 7 1 6 4 5 5 3 2 2 3 2 2 3 3 2 2 4 5 3 3 2
7 5 10 10 11 12 12 12 11 9 9 6 5 8 8 9 11 12 12 11 10 9 8 6 6 4 3 4 5 4 4 4 3 4 5 5 5 5 5 6 6 6 6 6 5 5 6 6 6 5 4 4 5 6 7 8 7 9 8 6 8 8 4 5 4 2 7 10 5 1 2 1 4 1 2 2 3 3 3 3 4 4 2 4 2
3 16 10 10 11 11 11 11 10 11 10 9 10 10 10 15 15 13 13 15 14 14 12 9 6 4 3 3 2 3 3 2 3 3 5 5 5 5 6 6 6 6 6 5 6 5 6 7 6 6 9 8 5 7 7 9 9 8 9 7 9 9 8 4 6 3 7 3 7 6 2 1 1 3 3 2 3 2 2 2 2 2 2 3 4
13 13 14 13 13 11 10 11 11 10 11 12 14 14 14 14 15 13 10 13 15 17 17 13 11 10 8 9 9 6 7 8 10 11 9 8 9 6 4 6 7 6 6 5 5 5 7 7 7 7 7 7 4 6 6 8 10 8 10 9 8 8 10 8 7 3 6 7 4 0 5 6 7 7 5 3 1 1 2 1 1 1 0 2 2
11 14 13 14 12 11 10 11 12 14 14 14 11 10 13 13 13 12 10 9 12 15 17 15 14 12 15 15 13 13 13 11 10 9 9 7 6 8 7 6 6 7 6 6 5 5 6 6 7 6 7 6 4 4 6 7 9 10 8 8 8 7 6 9 8 6 5 5 4 2 2 2 9 10 5 4 4 1 2 2 0 1 2 2 3
10 11 13 13 12 13 13 13 13 14 14 11 10 10 13 14 13 11 9 7 8 11 15 17 18 16 16 15 13 12 12 11 9 8 6 6 8 8 7 6 7 7 8 6 6 6 6 5 6 6 6 5 6 5 6 5 6 6 8 8 8 8 9 9 7 6 10 6 2 2 3 6 9 2 5 7 7 8 5 1 1 1 1 1 2
12 12 12 11 10 9 8 8 4 7 9 11 12 12 11 11 10 8 8 8 8 9 11 12 12 16 15 12 10 8 7 6 7 7 7 6 7 7 7 7 7 6 6 7 7 7 6 6 6 6 6 5 6 5 4 6 7 7 6 6 8 7 8 6 7 8 7 6 4 2 5 6 4 2 5 3 5 6 3 5 4 1 0 2 3
9 10 9 7 5 5 4 5 7 7 4 2 4 5 7 7 6 8 9 8 8 8 9 8 5 7 11 12 11 8 5 2 3 6 5 5 7 7 6 7 7 6 5 6 6 6 6 6 6 7 6 6 6 7 6 7 6 7 7 7 7 7 5 6 8 7 6 5 4 6 5 4 4 3 2 3 2 1 7 9 6 7 6 4 3
9 9 7 6 3 3 3 6 4 3 2 0 1 3 6 6 2 4 6 6 7 5 1 1 3 4 2 1 1 1 2 4 4 5 5 4 5 5 5 5 5 6 6 5 5 6 6 7 7 6 5 5 5 7 6 7 7 7 7 7 7 8 6 6 4 5 5 5 4 7 8 10 9 7 8 6 5 4 5 5 6 5 5 5 4
9 9 8 7 5 4 3 4 3 3 2 1 2 4 6 6 3 5 5 5 4 1 0 0 1 2 1 3 3 3 4 3 3 5 5 6 6 6 4 3 4 4 5 5 5 5 6 6 6 5 5 5 6 6 6 7 7 6 6 7 6 6 6 6 5 6 5 5 4 5 6 5 3 5 6 7 7 6 8 8 6 4 1 2 2
7 7 6 5 5 5 5 4 3 2 1 1 5 5 6 7 6 7 6 5 5 2 2 1 2 3 2 3 4 4 5 4 3 3 2 4 4 5 6 6 4 4 5 6 6 8 7 7 6 6 6 5 5 5 6 6 6 6 6 6 6 7 7 7 7 7 7 7 7 5 5 5 4 4 6 6 4 5 7 8 3 3 3 3 2
9 8 6 5 4 4 5 3 2 1 2 2 4 6 4 3 4 6 10 9 6 5 7 7 8 6 5 5 5 5 4 4 4 4 3 2 4 6 6 7 7 7 6 7 7 7 6 6 7 6 6 5 5 6 6 6 6 7 6 6 6 6 6 7 7 6 6 6 6 6 5 6 5 5 6 7 7 8 7 9 8 3 2 4 2
10 8 8 9 8 6 4 2 2 1 2 3 3 3 3 2 2 4 7 8 8 8 7 10 7 3 3 4 5 5 5 4 4 4 5 5 5 6 6 6 7 6 7 6 6 7 7 6 6 6 6 5 5 6 6 6 6 6 6 6 6 6 6 6 6 6 6 5 5 6 6 5 5 6 7 7 8 9 9 9 10 9 3 2 3
9 11 11 11 8 7 7 4 2 1 0 2 3 4 4 4 3 3 3 3 5 7 7 5 2 0 1 3 5 6 5 5 5 4 5 6 5 6 7 6 6 6 6 5 6 6 7 7 6 7 6 6 6 6 6 6 6 7 6 6 6 4 6 6 6 6 6 6 6 4 5 6 5 6 6 7 8 7 8 8 8 10 11 7 3
10 9 8 8 8 8 7 7 7 5 4 3 3 3 4 4 5 6 7 9 8 6 3 1 3 2 2 3 5 7 7 6 6 6 6 6 7 6 7 7 5 6 6 5 5 6 7 7 8 7 7 6 6 6 7 6 6 6 6 5 6 5 6 6 5 6 5 5 4 5 6 6 5 4 5 6 6 6 7 8 8 10 9 10 8
12 12 12 13 13 10 7 5 5 5 4 4 3 3 4 3 3 6 7 8 4 4 5 3 4 6 5 4 4 6 7 7 6 6 6 7 7 6 4 6 6 6 6 6 2 3 6 8 8 7 7 6 6 5 6 6 6 5 5 5 5 5 5 4 4 5 5 4 4 4 3 5 3 4 5 6 6 7 7 8 7 5 6 10 8
12 12 11 12 12 12 12 11 8 7 7 5 5 4 4 3 4 4 5 5 6 6 8 8 4 3 3 3 4 4 4 6 5 6 6 7 8 7 7 7 6 5 6 9 9 7 6 6 7 6 6 6 6 6 6 6 5 6 5 5 4 5 5 5 4 5 4 5 5 5 3 4 3 4 4 4 6 6 7 6 6 5 5 4 8
9 10 11 11 12 11 11 12 14 14 13 11 8 6 5 4 4 4 4 4 6 6 6 5 6 3 4 6 6 5 4 6 6 6 5 3 6 7 7 6 8 7 6 8 9 7 7 7 6 7 6 6 6 5 6 6 6 6 6 6 5 5 5 5 4 4 4 4 5 5 5 5 4 3 3 3 5 6 6 7 6 6 5 5 4
11 12 11 11 12 12 12 12 11 11 11 11 12 11 6 6 6 6 5 5 3 6 7 7 6 6 7 6 6 6 6 6 7 8 10 9 7 7 7 8 8 8 9 8 8 8 8 8 7 6 7 6 6 6 5 6 6 6 6 6 6 5 5 5 5 4 4 5 5 5 5 4 4 5 5 4 4 5 6 6 6 5 6 5 6
8 7 9 11 12 12 12 13 12 12 13 14 11 10 11 8 7 7 6 5 4 3 2 2 3 5 8 8 8 9 9 8 7 7 8 9 8 8 8 7 7 6 2 7 10 8 7 8 7 7 6 6 6 6 5 5 6 6 5 5 6 6 5 5 4 5 4 5 5 5 5 4 4 5 4 4 4 4 4 8 6 5 6 6 6
11 11 9 8 8 10 11 13 14 14 13 12 11 10 8 9 10 8 6 5 4 4 2 3 4 4 5 6 6 5 5 7 9 9 9 6 5 8 8 10 9 11 8 7 10 9 8 8 7 6 6 6 6 6 5 6 6 6 6 4 5 6 6 5 5 5 5 4 4 4 5 5 4 4 4 5 4 6 4 7 5 5 6 5 6
13 12 13 13 12 11 12 13 13 13 13 13 11 11 10 8 8 9 10 8 4 2 2 1 3 5 5 3 4 5 8 8 9 8 9 9 11 8 3 6 5 10 11 8 9 8 7 7 7 6 6 6 6 6 6 6 7 7 6 6 5 5 5 6 6 5 5 5 5 5 5 5 4 5 4 5 4 5 7 5 3 4 5 6 5
12 12 12 13 15 16 14 14 14 14 14 13 14 14 14 16 14 13 11 11 6 1 0 0 1 2 3 4 5 6 6 7 7 7 8 6 6 7 8 8 5 5 8 9 8 7 7 7 6 6 6 5 5 6 6 5 5 5 6 6 6 5 5 6 6 6 7 6 6 6 6 5 6 5 4 4 5 5 5 7 10 6 4 4 3
11 11 12 13 11 12 13 14 12 13 13 13 13 14 14 14 14 13 14 14 14 5 1 4 3 2 2 5 7 6 8 8 7 5 7 8 8 8 9 8 5 7 7 8 9 7 7 6 5 4 5 5 3 3 3 2 2 3 4 5 6 6 6 5 5 5 6 6 6 6 5 5 6 7 7 5 4 5 4 4 3 6 4 1 4
11 11 11 11 12 13 12 13 11 12 12 11 11 12 13 13 14 14 12 12 12 10 5 3 4 2 6 8 7 9 6 4 5 6 7 7 8 9 8 5 4 6 8 8 8 8 6 7 7 6 6 6 5 4 4 3 3 3 4 4 4 5 5 4 4 6 6 6 5 5 5 5 6 6 6 6 5 4 3 6 8 5 6 4 4
11 12 12 11 11 11 12 12 13 12 12 11 11 10 11 11 12 12 12 11 10 11 6 5 4 5 8 9 9 5 6 6 5 6 9 8 7 6 7 7 8 7 9 11 11 10 8 8 7 7 6 5 6 6 4 3 3 4 5 4 4 5 5 4 4 5 6 5 5 5 6 6 6 6 5 5 5 5 4 7 7 9 7 6 5
12 12 11 12 12 11 11 11 11 12 13 13 12 12 10 11 11 11 12 10 10 9 7 4 5 7 6 6 7 4 6 5 6 6 7 4 7 7 4 5 5 9 10 11 11 11 11 10 7 8 7 5 5 5 4 3 3 4 4 5 4 4 6 7 5 4 4 4 4 4 4 3 3 5 6 6 6 5 6 7 7 7 7 5 3
11 11 11 11 11 11 11 11 12 12 13 12 12 12 12 11 11 12 11 11 9 9 5 3 5 4 4 5 4 4 7 3 7 8 7 5 4 5 2 7 10 12 12 11 11 10 10 9 9 7 7 6 6 4 5 6 5 2 4 5 5 4 4 6 7 5 3 2 3 3 3 5 4 3 3 6 7 9 8 6 8 5 6 5 5
10 11 11 11 11 11 11 12 12 11 12 10 10 11 11 11 12 11 11 12 9 7 7 4 4 2 3 5 6 6 7 6 6 8 8 6 9 8 5 7 11 13 13 11 11 11 9 7 8 8 8 6 4 4 7 5 5 4 3 5 6 4 4 5 6 6 6 4 3 4 5 6 7 6 6 6 5 9 6 5 7 6 6 7 7
10 10 10 11 11 12 12 12 12 12 12 10 10 10 10 11 11 11 11 11 11 10 9 8 2 1 3 6 7 8 7 7 7 7 8 8 9 6 7 9 13 15 12 11 12 10 8 6 7 7 8 5 4 7 7 6 4 5 4 4 4 5 4 6 5 5 5 4 6 5 4 4 5 5 4 4 6 7 11 6 11 12 7 7 5
10 10 10 10 10 10 10 11 10 10 10 11 10 9 10 10 10 11 10 11 12 12 11 8 9 8 1 3 7 8 7 6 7 7 8 9 8 3 8 11 14 13 11 12 11 10 8 5 6 9 7 5 4 8 8 7 5 5 6 7 6 6 6 3 4 4 5 6 5 5 5 5 5 9 6 4 2 4 4 5 15 15 15 14 14
9 9 9 9 9 8 8 9 9 9 10 9 9 8 8 8 8 9 11 11 12 12 11 12 12 10 9 3 5 9 9 7 5 9 12 9 5 6 8 9 11 12 12 12 10 10 7 7 7 8 7 6 6 8 8 7 7 8 10 10 7 9 8 8 8 6 6 7 6 5 5 5 5 5 4 3 2 1 3 5 7 8 9 11 12
8 9 9 9 9 9 9 9 9 10 9 9 9 9 8 9 10 11 12 12 12 11 13 13 12 12 11 9 6 7 8 7 6 7 11 11 6 7 10 10 10 11 11 10 10 10 8 7 7 7 8 8 6 9 8 9 9 12 16 11 9 9 9 9 9 9 9 9 7 6 6 6 5 6 6 4 2 4 6 7 8 8 7 7 8
8 8 7 8 8 8 9 9 8 8 8 8 8 9 8 9 9 11 11 11 11 12 13 13 13 12 12 10 8 7 8 7 6 9 11 10 6 9 11 9 10 10 9 10 8 8 9 8 6 6 9 8 7 11 10 11 11 13 15 10 9 10 10 10 10 9 9 8 7 6 6 7 6 7 9 11 7 5 7 7 8 5 4 4 6
6 6 7 6 6 7 8 7 8 8 9 8 8 8 7 9 11 11 11 12 13 14 13 12 12 11 11 10 10 9 8 8 6 8 11 9 9 10 9 8 11 9 10 10 9 8 7 8 8 7 10 8 7 10 11 13 12 12 13 9 10 10 10 11 9 8 8 7 7 7 7 7 8 8 10 12 12 11 8 8 6 5 4 5 5
5 5 5 6 6 6 7 8 9 9 10 9 9 8 8 10 11 11 12 13 13 13 12 11 11 11 10 11 11 10 9 9 8 9 7 8 8 7 5 6 10 11 11 9 8 9 8 7 9 9 8 9 8 9 12 13 13 12 11 10 9 10 10 9 8 7 6 7 9 13 9 7 8 7 11 13 12 10 8 7 6 7 8 8 8
5 5 5 6 7 6 7 8 10 11 12 11 10 9 9 11 10 10 12 13 13 12 12 11 9 9 10 11 12 11 10 9 10 8 6 9 9 6 3 6 10 10 10 8 8 10 9 8 8 9 11 11 9 9 13 14 13 11 9 7 9 10 10 7 7 7 6 6 6 8 11 9 7 6 11 12 13 9 7 6 5 7 7 7 5
5 5 4 4 5 8 11 11 11 10 10 10 8 7 10 10 10 10 12 12 11 9 9 9 10 9 10 11 11 11 11 11 10 9 8 8 8 7 4 8 8 9 9 8 9 10 11 8 7 9 9 8 9 8 11 15 13 13 10 8 6 10 9 7 6 6 6 5 5 6 7 10 9 9 10 10 10 10 7 5 6 7 5 4 3
6 6 5 6 7 7 8 8 7 8 9 8 8 8 10 9 9 11 11 10 8 8 9 9 10 11 12 12 10 11 11 11 9 8 7 7 7 6 6 8 9 9 10 10 10 9 10 9 9 8 8 7 7 9 11 14 15 14 12 10 8 8 8 7 7 6 5 5 5 5 4 8 9 9 10 10 10 9 7 6 5 5 2 0 1
5 6 6 6 6 7 8 8 7 7 7 7 7 9 9 9 11 13 11 8 7 8 9 10 11 12 11 11 11 11 11 10 9 8 8 8 7 6 5 7 9 10 12 12 11 10 10 9 7 7 7 8 9 12 9 13 15 15 14 13 9 6 5 7 8 7 6 5 4 4 4 6 8 9 9 10 10 9 8 6 5 5 4 4 3
7 8 7 6 6 7 7 7 6 7 7 6 6 8 8 8 12 11 9 9 7 7 9 10 11 12 11 11 11 12 11 9 9 9 8 8 7 6 5 6 9 10 11 11 12 10 9 8 7 6 7 7 7 8 12 11 14 15 15 14 12 9 8 7 8 7 5 4 3 3 4 7 9 11 12 12 11 11 9 6 7 8 8 7 5
6 6 7 6 5 5 5 6 6 6 6 6 7 8 8 10 10 7 9 10 10 8 7 9 9 10 11 11 10 11 10 10 10 8 8 8 8 6 5 4 6 7 8 9 9 9 8 6 7 7 7 6 7 6 10 13 12 15 14 14 13 12 10 7 7 6 4 5 6 6 7 12 14 15 16 16 17 15 12 12 12 10 8 6 5
4 5 6 5 6 5 4 5 5 6 6 6 5 6 8 10 8 7 8 9 9 9 9 9 9 9 9 9 10 10 10 10 9 9 9 8 8 6 4 5 5 6 8 9 7 6 7 6 6 7 6 5 6 6 6 9 13 13 13 12 12 12 11 9 7 4 4 5 7 11 14 15 15 16 16 16 15 16 18 16 15 13 11 8 8
4 5 6 5 5 5 5 4 6 6 6 5 6 5 8 5 5 7 7 7 8 9 10 9 9 9 9 10 11 10 10 9 9 8 8 7 7 6 6 6 6 7 7 7 6 6 6 6 6 5 4 4 5 4 5 5 6 7 8 11 11 11 10 10 9 7 9 12 14 15 16 16 15 13 12 10 9 10 15 16 16 14 9 8 8
3 3 4 5 5 6 5 5 5 5 5 5 6 6 5 5 5 5 6 7 8 10 10 10 9 8 8 8 9 7 7 8 8 6 7 7 7 7 7 7 7 6 6 7 6 5 5 5 6 5 5 4 4 4 4 5 5 6 5 5 6 7 7 8 8 8 9 10 12 12 11 12 12 15 15 12 11 11 11 10 9 8 8 7 7
3 4 3 4 6 5 6 5 5 4 4 5 5 6 6 6 5 3 3 5 6 7 8 8 10 9 8 7 6 7 8 7 8 9 10 9 8 7 8 8 6 6 6 6 6 5 4 4 5 5 5 5 5 4 5 5 5 5 5 5 5 6 7 6 7 6 7 8 8 9 11 8 9 9 9 9 8 8 8 7 7 6 6 6 6
2 3 3 3 3 4 5 5 6 4 3 4 4 4 6 5 5 4 3 5 5 5 6 7 7 7 8 6 6 6 6 5 5 8 8 7 8 7 7 7 7 4 4 5 6 5 4 3 4 4 4 5 4 4 2 2 1 3 4 6 6 6 5 6 4 4 7 7 9 9 9 9 9 8 8 7 7 7 7 6 7 6 6 6 6
2 2 3 4 4 4 4 5 5 4 4 3 3 3 4 5 4 4 4 4 4 5 5 6 5 6 6 5 4 4 5 5 5 4 6 7 8 10 7 7 6 10 13 12 7 4 3 2 5 3 2 5 6 3 2 1 1 3 5 7 6 6 6 5 5 9 10 9 8 8 7 8 7 7 7 7 6 5 6 6 6 6 7 7 6
4 3 4 3 4 4 3 3 5 4 4 3 3 3 2 3 4 3 2 3 4 5 5 6 5 5 5 4 3 3 3 4 4 4 4 5 5 8 12 13 10 10 11 12 12 10 8 6 5 5 5 7 5 3 1 2 5 5 6 7 7 8 9 9 6 10 10 8 8 8 7 7 6 6 6 6 5 6 5 6 6 6 6 6 5
Wind_Direction
197 200 90 81 85 109 125 124 126 131 135 129 111 101 95 91 95 108 147 157 155 153 160 168 168 172 193 191 185 180 170 164 171 168 167 164 156 161 157 154 154 150 153 151 147 150 142 144 160 170 148 146 147 157 150 129 142 147 127 126 136 129 130 125 123 121 117 104 85 73 56 47 68 77 79 78 70 84 96 112 59 36 56 97 102
278 201 65 82 109 132 130 125 126 138 146 127 129 142 156 152 147 153 164 183 169 170 174 178 182 181 179 184 174 173 165 176 181 189 181 171 158 159 158 155 154 157 157 156 155 157 156 163 171 175 161 144 163 153 129 125 142 160 137 118 172 146 143 151 153 129 102 138 137 125 75 62 65 66 68 68 75 59 72 99 98 78 248 118 111
220 149 83 108 121 115 120 128 145 153 143 144 154 141 130 131 138 151 165 173 174 169 173 181 188 184 194 179 167 168 224 196 177 178 173 167 165 164 159 156 156 159 161 165 163 168 168 155 160 153 163 156 154 153 138 136 147 149 164 154 144 53 123 163 173 181 130 121 103 105 131 117 96 74 64 102 121 124 146 122 124 155 230 108 94
212 118 100 102 101 119 130 140 149 150 139 128 86 107 126 138 160 177 157 157 161 171 176 182 180 182 162 157 167 182 187 186 182 171 165 150 164 168 161 157 164 167 174 170 172 174 162 154 155 128 72 299 182 164 148 138 142 152 167 169 148 144 160 175 199 177 142 138 143 179 137 74 133 122 121 83 106 104 142 153 147 151 129 104 95
201 85 101 96 105 123 132 134 138 143 140 128 136 160 171 164 174 189 176 166 169 167 167 162 158 150 131 99 110 88 83 152 174 203 185 171 153 173 182 161 165 173 181 174 173 167 166 167 151 149 157 202 206 164 159 154 159 172 165 163 167 158 165 163 197 161 179 170 130 122 83 213 214 115 113 64 88 84 39 106 131 106 130 128 140
73 115 110 115 122 124 127 136 142 143 147 169 175 166 168 174 187 183 201 176 172 169 165 161 168 169 164 166 176 181 178 182 194 193 188 183 183 175 171 171 171 176 180 180 171 151 167 167 155 157 164 177 210 175 159 131 150 182 176 170 170 174 160 166 179 211 203 208 251 309 151 166 160 143 160 143 91 60 134 88 113 94 271 98 106
69 92 115 120 132 134 143 150 154 156 175 177 178 166 166 178 193 186 195 199 175 173 168 165 167 175 180 185 184 183 184 198 197 194 186 181 152 165 178 175 176 173 175 178 161 147 160 163 159 155 172 179 171 184 163 159 158 173 181 164 168 162 151 165 179 187 192 251 232 225 140 122 143 149 187 104 134 138 137 119 161 188 193 140 146
116 112 128 140 148 151 162 169 168 169 171 173 170 171 178 187 191 192 187 207 204 182 180 179 175 178 182 185 189 191 192 188 187 191 183 162 163 162 165 173 176 175 170 170 160 153 158 163 163 155 177 187 158 192 176 162 136 163 171 169 157 163 171 169 175 176 179 201 184 113 91 131 152 61 140 161 149 150 159 144 117 207 228 180 180
122 130 140 152 157 162 160 165 150 148 162 169 181 184 184 198 195 181 189 193 203 205 203 201 186 177 178 176 185 199 193 185 178 179 179 174 168 157 162 166 169 166 165 164 162 160 162 164 164 166 187 182 164 197 175 160 155 159 154 161 166 171 181 176 162 183 182 177 128 70 105 126 120 90 125 104 147 144 133 174 151 93 275 256 218
92 118 126 128 129 127 133 120 139 160 167 168 175 181 199 207 201 185 192 207 204 207 215 218 216 187 177 181 181 185 192 172 181 178 181 175 173 166 164 166 166 158 158 160 160 161 158 159 168 179 192 187 176 177 159 163 163 170 168 173 169 170 179 174 180 178 182 166 156 142 129 117 88 102 123 121 70 173 164 179 166 167 180 217 186
77 91 93 79 57 60 89 129 117 58 27 35 201 197 208 220 239 215 219 234 219 195 171 317 345 357 355 34 129 135 99 123 155 167 169 169 173 167 175 179 167 164 156 157 160 159 162 166 175 188 196 190 179 164 161 164 172 175 174 174 172 169 175 180 174 172 166 163 161 157 157 167 170 169 170 169 158 149 119 147 159 175 184 169 213
68 78 87 95 85 60 44 57 49 32 28 336 220 188 200 218 211 224 241 256 269 194 85 31 77 82 115 117 110 102 120 133 171 176 179 178 173 173 172 164 186 167 155 151 162 169 169 174 176 177 193 190 188 172 162 164 168 166 168 173 176 171 163 165 162 166 170 167 172 172 173 168 129 146 163 162 161 160 154 155 162 158 155 218 150
46 60 72 77 75 72 76 72 58 33 324 243 217 205 196 196 200 196 203 246 270 173 122 98 141 177 134 108 109 105 99 111 150 164 175 171 171 171 170 179 177 176 175 165 178 176 175 172 170 176 193 200 181 167 164 164 159 166 174 171 165 163 168 166 166 174 169 173 182 182 162 170 176 144 144 154 127 132 145 143 160 177 153 162 132
19 16 25 42 60 72 83 81 57 2 297 285 228 214 199 172 196 216 219 196 197 200 187 184 199 184 151 127 121 114 118 125 134 152 149 163 198 178 186 180 180 188 178 186 180 176 180 177 172 181 194 195 183 172 163 159 160 164 169 165 171 168 160 168 170 168 173 176 163 164 175 180 180 163 155 143 150 142 155 157 152 167 133 159 122
13 10 12 9 9 18 30 64 88 25 296 284 326 352 343 282 208 214 213 201 193 190 186 200 199 170 129 123 119 115 126 129 138 149 161 184 195 186 189 187 182 182 188 189 177 179 180 172 177 185 191 192 185 171 168 156 159 154 165 167 159 158 166 164 166 165 171 171 174 172 175 178 175 173 158 164 160 167 160 164 152 146 124 147 161
19 12 360 353 357 351 352 357 360 12 309 332 345 348 344 313 290 272 267 254 207 198 194 183 117 30 87 130 131 126 123 126 129 148 169 153 193 196 188 191 192 177 186 179 187 180 176 175 174 180 179 179 173 169 160 158 160 156 158 156 158 158 159 166 171 171 177 179 177 168 159 184 176 163 167 166 171 166 163 162 165 160 156 170 178
32 25 10 353 347 349 354 341 341 349 23 26 8 356 338 325 315 332 326 346 346 351 349 78 146 181 192 161 147 142 142 152 162 171 178 167 184 197 188 192 188 183 179 179 183 175 167 164 163 161 161 162 160 161 157 159 159 154 157 162 161 159 159 173 164 174 184 175 167 172 179 175 183 153 149 168 163 158 168 171 175 172 171 154 164
30 25 19 12 5 351 339 332 337 351 347 352 353 353 342 320 271 264 259 255 259 260 284 306 198 182 180 173 159 156 156 158 167 174 176 173 180 189 187 183 194 187 178 130 172 230 161 155 149 152 152 151 152 154 155 156 150 152 161 172 168 154 159 147 167 170 180 175 166 169 168 178 177 159 162 166 165 165 167 177 179 175 161 167 166
24 18 15 12 8 4 360 358 1 358 357 7 5 353 342 337 307 288 273 260 226 213 219 219 191 186 170 173 199 169 157 153 156 165 171 188 183 181 187 189 187 188 171 147 160 203 153 149 146 148 151 148 146 152 154 154 154 152 159 167 164 156 157 164 168 164 174 166 166 171 173 182 177 176 166 160 165 163 173 171 173 152 176 175 164
27 25 16 9 3 356 357 5 10 7 7 360 355 346 342 324 315 302 290 254 226 211 215 195 151 182 165 177 183 155 151 145 152 154 156 214 201 186 186 182 190 186 175 157 161 156 150 149 153 150 151 149 147 155 154 153 152 161 162 164 174 159 162 172 173 174 161 175 167 167 176 181 184 171 176 176 153 171 171 174 167 166 177 155 147
22 22 14 8 3 355 355 4 4 4 8 10 9 358 329 331 317 305 310 325 263 206 188 196 177 173 159 170 149 118 130 146 155 165 165 203 210 199 188 194 183 175 163 170 152 149 149 151 150 152 152 155 155 163 165 152 153 160 165 167 165 168 169 181 171 179 174 175 178 174 179 187 179 175 188 185 158 153 172 181 165 162 175 169 156
37 36 15 8 1 353 354 2 4 7 6 4 1 3 356 335 314 307 318 311 326 312 238 209 205 182 177 172 159 157 161 176 171 185 195 200 199 197 193 184 179 114 189 161 147 147 148 149 149 150 150 156 162 162 161 155 159 158 167 164 161 167 176 175 174 176 177 183 174 173 185 183 184 184 184 190 181 123 167 176 187 171 173 187 184
15 14 27 25 5 355 357 1 358 358 356 356 354 355 349 341 340 323 298 288 285 302 263 165 167 163 181 183 177 161 154 187 187 188 198 197 228 217 191 185 148 162 182 173 142 147 150 148 147 151 148 153 160 161 166 163 164 166 165 171 169 165 168 167 177 181 178 168 166 178 189 189 183 178 191 199 186 139 196 187 185 173 183 197 188
19 14 8 3 4 7 9 5 0 356 350 348 342 341 343 350 343 341 335 313 295 331 341 135 141 164 164 137 186 179 181 190 193 197 194 186 202 205 159 139 147 170 161 152 143 144 145 146 146 151 151 155 156 158 167 167 166 168 169 171 173 174 174 175 177 173 172 174 172 171 186 183 178 186 197 203 195 169 172 167 217 226 174 191 200
22 19 11 8 9 8 5 0 358 354 351 348 348 347 346 343 343 345 339 333 313 279 241 48 224 199 140 143 216 191 182 183 189 191 186 173 160 113 104 148 188 213 140 134 138 136 142 146 149 155 155 145 154 163 166 168 169 170 172 172 175 182 187 181 176 176 185 181 178 186 182 175 171 180 201 198 196 192 179 151 198 210 169 176 183
30 23 20 16 9 6 5 2 356 353 349 346 345 345 341 339 334 337 338 333 330 318 221 208 203 218 99 185 218 196 186 175 163 143 134 125 118 122 151 170 201 194 131 133 137 142 150 148 127 102 91 85 73 89 98 97 127 146 163 162 173 183 187 181 178 174 185 182 182 189 185 179 172 183 192 192 192 191 177 158 116 70 335 141 205
29 26 20 15 11 7 360 359 356 349 348 346 344 343 339 334 330 328 329 327 323 322 299 293 261 179 180 205 200 210 193 146 124 127 125 128 138 158 169 145 218 174 123 107 100 99 92 99 92 92 86 86 80 77 79 71 80 92 126 135 150 166 172 171 166 175 176 182 176 173 179 179 183 191 187 188 185 191 153 97 117 155 210 258 202
32 27 22 17 11 6 3 357 352 350 344 347 347 343 339 333 327 323 322 320 321 319 284 232 233 202 196 197 207 198 156 136 133 118 137 146 148 162 168 161 208 119 103 102 103 100 92 88 89 89 81 79 82 71 57 47 62 77 95 95 116 135 143 138 146 154 168 170 162 171 178 187 188 188 189 191 173 180 130 134 158 180 180 224 215
30 25 18 16 13 5 1 357 351 350 350 350 347 343 339 335 331 325 325 316 315 308 294 227 181 215 211 195 199 178 128 121 126 118 110 125 160 162 136 151 114 100 98 98 101 105 101 91 78 83 76 67 63 55 31 14 55 77 88 94 92 109 134 136 136 139 144 132 141 160 165 165 182 180 192 182 182 167 152 161 188 183 184 207 192
29 23 17 14 10 7 1 359 356 352 347 346 346 344 341 338 339 336 332 329 319 316 264 239 225 217 158 191 174 101 103 113 126 110 105 100 87 87 164 145 120 106 102 97 94 92 95 100 95 79 74 65 55 49 17 0 339 77 102 102 88 87 122 136 137 131 117 111 131 134 127 129 123 126 191 185 173 181 180 180 160 204 182 181 177
28 24 17 14 11 7 3 2 356 349 344 341 342 344 341 342 346 338 339 338 330 336 342 278 246 218 159 142 136 125 123 135 119 117 107 106 103 116 163 133 112 102 98 98 95 91 87 89 92 89 76 65 47 22 356 359 359 22 93 98 104 104 122 135 140 146 144 140 107 59 50 50 50 45 41 40 195 199 170 136 146 160 161 168 151
24 20 17 15 12 7 4 356 349 347 344 343 341 339 348 349 342 345 341 343 358 357 355 335 287 137 129 150 144 127 121 122 119 119 114 109 103 136 157 126 111 102 97 97 92 91 93 92 94 87 76 64 57 12 1 360 12 39 59 93 95 100 117 141 148 149 142 107 84 83 60 47 39 34 45 39 46 70 101 154 97 85 84 58 49
19 15 14 12 9 5 359 351 346 348 348 343 337 339 352 346 349 346 342 3 9 12 5 358 3 7 338 136 128 123 119 121 126 117 105 104 108 185 119 105 102 102 101 95 97 96 94 94 95 90 75 55 50 8 6 3 15 55 63 75 68 77 79 75 102 92 87 99 102 87 70 45 24 29 25 12 21 83 94 88 90 74 54 51 50
17 15 13 6 359 355 353 353 348 345 345 334 336 336 335 342 351 358 9 8 16 15 18 15 13 11 1 14 121 125 131 127 127 131 112 96 101 115 94 94 96 96 97 99 97 97 97 87 82 85 79 56 45 2 8 16 29 60 76 79 75 71 65 60 67 75 79 76 69 68 69 55 28 28 24 23 30 6 64 69 68 73 73 54 48
15 16 11 7 1 355 349 348 351 350 344 341 345 346 341 0 7 16 15 17 14 18 24 22 17 13 7 11 30 89 102 105 107 98 97 104 123 109 95 87 88 95 102 100 104 99 89 84 77 77 77 55 26 2 25 42 54 87 86 83 80 76 70 63 59 63 70 75 75 74 73 70 49 43 19 10 68 98 92 80 74 69 69 67 59
21 16 7 7 1 358 352 347 339 344 344 350 348 341 357 8 11 21 20 19 18 25 25 24 19 17 10 10 16 50 73 75 90 109 106 105 107 101 99 98 96 93 89 96 87 91 96 90 82 80 79 58 29 14 37 54 67 86 89 85 81 78 77 72 65 62 68 68 70 73 77 63 58 52 25 41 56 88 84 83 86 91 84 72 62
19 15 13 0 358 2 355 348 347 348 349 349 345 348 359 18 24 19 23 21 23 26 18 25 20 17 13 18 25 28 52 63 67 84 99 104 103 94 100 110 102 97 98 91 93 88 88 93 87 79 81 69 44 18 41 58 59 81 93 94 91 88 81 77 68 61 63 66 65 64 65 71 59 48 23 42 49 69 63 61 63 60 59 57 43
14 16 10 8 3 6 6 5 358 360 357 348 347 347 7 29 28 23 27 24 24 21 15 17 21 15 15 25 30 30 39 50 54 61 70 85 76 66 75 108 106 109 97 93 96 90 77 75 80 74 74 80 58 30 47 59 62 60 90 102 101 95 88 84 81 66 65 63 55 51 53 62 58 40 22 35 32 59 65 58 57 51 37 27 10
22 10 13 10 8 12 13 12 13 11 358 352 345 345 17 32 28 28 33 32 23 15 16 12 13 20 19 32 32 30 33 40 47 45 43 81 80 72 87 91 101 96 94 99 95 91 85 72 72 80 71 73 67 44 47 60 62 64 78 95 103 102 94 82 82 73 57 61 54 47 47 50 61 44 42 43 37 49 68 56 64 66 53 42 353
20 19 15 15 12 22 23 18 14 3 352 354 348 1 22 22 20 27 38 33 22 13 10 18 17 25 26 32 33 31 31 37 34 37 33 57 71 75 49 87 84 93 98 92 88 86 87 81 77 74 67 63 72 60 49 57 61 61 73 91 95 102 102 98 85 84 76 55 47 46 40 39 51 52 55 54 52 54 72 63 62 67 67 35 324
16 9 5 23 23 28 26 17 4 355 355 352 351 16 25 18 14 23 24 21 19 16 24 23 27 27 33 29 28 32 28 32 29 35 32 46 58 76 92 92 92 86 89 84 80 83 83 78 68 68 75 66 65 70 52 57 59 58 60 82 86 92 106 106 103 89 79 73 55 46 46 32 43 50 55 56 58 56 62 71 66 82 87 271 337
357 2 14 17 22 26 22 16 6 358 356 357 0 26 26 22 25 22 3 345 10 25 28 34 35 34 33 33 29 30 33 33 25 26 37 40 49 64 80 95 98 94 90 87 83 77 75 71 66 62 61 57 50 56 69 57 61 61 59 64 82 76 97 111 95 83 71 60 49 35 36 22 42 57 60 60 59 58 49 58 61 93 87 57 62
359 2 1 9 17 22 17 7 355 0 1 0 7 28 23 22 30 14 2 359 351 28 41 39 42 42 40 35 33 35 35 31 36 32 34 29 24 34 48 82 94 96 96 97 92 84 77 74 66 56 48 48 40 42 51 64 62 66 65 65 69 77 70 75 90 83 74 71 46 43 33 37 55 53 53 53 50 46 49 45 52 55 54 46 42
5 7 1 3 13 10 9 355 354 354 355 0 16 27 21 27 18 353 7 12 10 1 33 51 47 47 47 42 36 35 34 35 31 32 41 41 28 10 359 31 76 93 98 92 88 95 94 85 79 59 43 39 36 40 40 51 62 63 66 65 63 62 66 77 77 87 77 66 57 44 55 69 73 70 66 62 59 58 61 54 48 43 42 38 41
2 4 1 6 11 8 353 349 345 349 351 352 353 24 28 24 359 3 9 14 17 18 17 23 38 43 47 56 52 41 35 31 31 32 34 30 33 19 25 26 60 85 94 97 98 99 98 95 78 72 55 36 28 30 33 38 55 62 59 59 60 60 58 68 76 65 63 58 65 71 72 74 74 71 66 63 57 53 56 56 55 54 52 45 45
6 4 359 360 3 13 16 352 340 344 346 341 345 1 29 8 354 6 8 11 21 26 30 25 19 26 32 41 46 47 45 37 33 32 38 33 26 20 39 43 53 64 77 86 98 95 91 89 86 83 75 58 38 29 32 25 29 50 53 50 52 50 55 64 75 68 64 65 69 71 68 64 60 60 60 57 58 54 54 51 47 47 48 47 45
342 340 355 3 7 7 11 16 9 338 331 337 348 353 1 358 8 7 11 21 30 27 23 21 23 23 22 33 51 47 48 45 48 48 43 37 34 29 39 41 46 60 79 93 95 97 101 102 107 103 90 71 60 42 29 32 22 39 38 37 45 46 49 62 59 49 52 62 66 68 74 75 77 70 70 68 62 51 48 43 42 40 44 44 47
310 316 354 3 1 353 355 4 10 345 327 324 336 340 346 354 349 3 26 23 26 22 19 16 15 15 21 23 31 50 63 52 39 45 46 34 24 31 51 45 29 23 66 83 91 97 97 101 106 100 95 81 69 53 22 34 24 36 39 41 50 50 46 49 60 58 69 77 82 74 65 57 60 57 54 52 49 50 49 47 44 43 43 44 52
324 321 338 327 321 324 326 333 332 337 343 343 324 321 332 342 339 343 29 48 28 16 16 13 12 18 15 14 24 23 43 69 78 68 65 54 43 31 45 52 31 13 24 85 106 83 72 64 77 81 100 100 74 65 25 288 329 18 56 63 52 50 49 59 57 80 90 69 65 60 57 56 56 63 57 57 54 53 47 42 44 41 40 46 47
268 282 299 310 306 298 303 314 310 314 329 330 331 330 324 325 333 344 357 43 39 33 22 14 11 16 11 10 17 30 29 37 46 69 99 90 76 77 66 68 42 23 43 45 56 86 80 95 96 55 34 102 117 155 203 203 117 83 66 75 80 70 66 72 64 66 81 78 69 69 59 66 62 63 62 58 57 59 57 49 40 36 38 40 39
279 293 304 298 288 285 288 300 295 316 311 299 316 327 323 315 326 356 9 1 8 20 26 26 24 26 22 25 33 56 28 47 41 46 50 76 71 50 56 58 60 60 59 55 59 65 65 49 82 93 38 49 81 94 130 125 101 88 79 70 65 62 62 67 88 86 60 75 80 75 68 63 65 69 72 68 60 62 57 62 49 43 40 40 34